Daito, Japan

12:36 PM JST on January 24, 2017 (GMT +0900)
Memanbetsu

Weather History for RJCM - December, 2012

Change the Weather History Date:

Thursday, December 6, 2012

  Actual Average Record
Temperature  
Mean Temperature 28 °F -  
Max Temperature 39 °F 27 °F 46 °F (1997)
Min Temperature 17 °F 13 °F 12 °F (1998)
Degree Days  
Heating Degree Days 37    
Moisture  
Dew Point 27 °F    
Average Humidity 85    
Maximum Humidity 100    
Minimum Humidity 69    
Precipitation  
Precipitation 0.00 in - - ()
Sea Level Pressure  
Sea Level Pressure 29.52 in    
Wind  
Wind Speed 8 mph ()    
Max Wind Speed 22 mph    
Max Gust Speed 25 mph    
Visibility 4.6 miles    
Events Rain , Snow    
Averages and records for this station are not official NWS values.
T = Trace of Precipitation, MM = Missing Value Source: Averaged Metar Reports

Daily Weather History Graph

Daily Weather History Graph

Search for Another Location

Airport or City:

Trip Planner

Search our weather history database for the weather conditions in past years. The results will help you decide how hot, cold, wet, or windy it might be!

Date:

Astronomy

Dec. 06, 2012 Rise Set
Actual Time 6:42 AM JST 3:45 PM JST
Civil Twilight 6:10 AM JST 4:18 PM JST
Nautical Twilight 5:34 AM JST 4:54 PM JST
Astronomical Twilight 4:59 AM JST 5:29 PM JST
Moon 11:08 PM JST (12/6) 11:06 AM JST (12/6)
Length of Visible Light 10h 08m
Length of Day
9h 02m
Waning Gibbous, 55% of the Moon is Illuminated
Dec 6
Waning Gibbous
Dec 7
Last Quarter
Dec 13
New
Dec 20
First Quarter
Dec 28
Full

Hourly Weather History & Observations

Time (JST) Temp. Windchill Dew Point Humidity Pressure Visibility Wind Dir Wind Speed Gust Speed Precip Events Conditions
8:00 AM 17.6 °F 7.3 °F 14.0 °F 86% 29.86 in - SSE 8.1 mph - N/A   Clear
9:00 AM 21.2 °F 16.4 °F 17.6 °F 86% 29.80 in 6.2 mi Variable 3.5 mph - N/A   Mostly Cloudy
10:00 AM 23.0 °F 18.4 °F 17.6 °F 80% 29.77 in 6.2 mi WNW 3.5 mph - N/A   Mostly Cloudy
11:00 AM 26.6 °F - 19.4 °F 74% 29.65 in 6.2 mi Variable 1.2 mph - N/A Snow Light Snow Showers
11:05 AM 26.6 °F - 21.2 °F 80% 29.65 in - Variable 1.2 mph - N/A Snow Light Snow Showers
11:23 AM 33.8 °F 25.3 °F 30.2 °F 87% 29.62 in 3.1 mi South 11.5 mph - N/A Snow Light Snow Showers
12:00 PM 37.4 °F 27.8 °F 30.2 °F 75% 29.56 in 6.2 mi SE 17.3 mph - N/A Rain , Snow Light Rain Showers
1:00 PM 39.2 °F 29.6 °F 32.0 °F 75% 29.47 in 6.2 mi ESE 19.6 mph - N/A Rain Light Rain Showers
1:50 PM 37.4 °F 27.8 °F 32.0 °F 81% 29.42 in - SE 17.3 mph - N/A Rain Rain Showers
2:00 PM 37.4 °F 27.8 °F 32.0 °F 81% 29.42 in 3.7 mi SE 17.3 mph - N/A Rain Rain Showers
2:50 PM 33.8 °F 25.3 °F 32.0 °F 93% 29.44 in - SW 11.5 mph 24.2 mph N/A Snow Light Snow Showers
3:00 PM 33.8 °F 25.8 °F 32.0 °F 93% 29.44 in 0.5 mi SW 10.4 mph - N/A Snow Snow Showers
3:08 PM 32.0 °F 24.8 °F 32.0 °F 100% 29.44 in 0.3 mi SW 8.1 mph - N/A Snow Snow Showers
3:18 PM 32.0 °F 26.4 °F 32.0 °F 100% 29.44 in 1.2 mi SW 5.8 mph - N/A Rain , Snow Light Snow Showers
3:31 PM 32.0 °F 26.4 °F 32.0 °F 100% 29.42 in 3.1 mi SE 5.8 mph - N/A Rain , Snow Light Rain Showers
4:00 PM 32.0 °F - 32.0 °F 100% 29.42 in 6.2 mi Calm Calm - N/A   Mostly Cloudy
5:00 PM 35.6 °F 25.5 °F 32.0 °F 87% 29.36 in 6.2 mi South 17.3 mph - N/A   Mostly Cloudy
6:00 PM 37.4 °F 28.9 °F 30.2 °F 75% 29.39 in 6.2 mi SSW 13.8 mph 25.3 mph N/A   Scattered Clouds
7:00 PM 33.8 °F 21.9 °F 24.8 °F 70% 29.39 in 6.2 mi SSW 21.9 mph - N/A   Partly Cloudy
8:00 PM 32.0 °F 20.8 °F 23.0 °F 69% 29.42 in 6.2 mi SSW 17.3 mph - N/A   Partly Cloudy